"Pseudo-MPEC" for P11dnbQ

Created 2021 Mar 4 15:07:13 UT using Find_Orb

Click here for an explanation of pseudo-MPECs

 
 Astrometry: 
     P11dnbQ  C2021 02 16'uu0!%bBsKP4).5WVX(R\kOj:#9R'Cn.Astrometryri?sH[;B,FF51
     P11dnbQ  C2021 02 160i.EFredacted;d#click)p`NF*h#Dt*AB9:e233G)/SO@v7ew!iF51
     P11dnbQ  C2021 02 16K).q3PO1JYSFLGe8Zx_=.lFNC]m@8\de.5S^dbxKb$rMq-%0hereF51
     P11dnbQ  C2021 02 16Jg#qo.c@GEtee(r@?j\=Du4forKlAP#FZq3Z%explanationvTvNF51

Station data:
(F51) Pan-STARRS 1, Haleakala  (N20.707235 W156.255910)  US/Hawaii.
   Observers N. Primak, A. Schultz, S. Watters, J. Thiel, T. Goggia. Measurer
   PS1 Science Consortium. 1.8-m Ritchey-Chrétien + CCD.

Orbital elements:  P11dnbQ
   Perihelion 2021 Jan 16.037138 +/- 51.8198 TT =  0:53:28 (JD 2459230.537138)
Epoch 2021 Feb 16.0 TT = JDT 2459261.5   Earth MOID: 0.3391   AutoNEOCP
M  14.50650944 +/- 27.564195        (J2000 ecliptic)
n   0.46851319 +/- 0.326413         Peri.  142.68260 +/- 88.388605
a   1.64180470 +/- 0.769661         Node   338.00148 +/- 58.147143
e   0.2153958 +/- 0.272084          Incl.   31.65878 +/- 15.278109
P   2.10/768.37d           H 22.8   G  0.15   U 12.0  SR
q 1.28816672 +/- 0.296788    Q 1.99544269 +/- 27.4305
From 4 observations 2021 Feb. 16 (45.6 min); mean residual 0".11
Residuals in arcseconds: 
210216 F51  .11+  .11+    210216 F51  .02+  .09+    
210216 F51  .17-  .20-    210216 F51  .04+  .01+    

Ephemerides (geocentric):
Date (UTC) HH   RA              Dec         delta   r     elong  mag " sig PA
---- -- -- --  -------------   -----------  ------ ------ -----  --- ---- ---
2021 03 04 15  09 09 41.090   +21 35 07.48  .37764 1.3299 149.1 22.4  45d 148
2021 03 04 16  09 09 34.358   +21 32 05.51  .37782 1.3299 149.0 22.4  45d 148
2021 03 04 17  09 09 27.642   +21 29 03.67  .37800 1.3300 149.0 22.4  45d 148
2021 03 04 18  09 09 20.943   +21 26 01.95  .37819 1.3301 149.0 22.4  45d 148
2021 03 04 19  09 09 14.261   +21 23 00.36  .37837 1.3302 148.9 22.4  45d 148
2021 03 04 20  09 09 07.595   +21 19 58.89  .37856 1.3302 148.9 22.4  45d 148
2021 03 04 21  09 09 00.946   +21 16 57.54  .37874 1.3303 148.8 22.4  45d 148
2021 03 04 22  09 08 54.313   +21 13 56.32  .37893 1.3304 148.8 22.4  45d 148
2021 03 04 23  09 08 47.697   +21 10 55.23  .37911 1.3304 148.7 22.4  45d 148
2021 03 05 00  09 08 41.097   +21 07 54.26  .37930 1.3305 148.7 22.4  45d 148
2021 03 05 01  09 08 34.513   +21 04 53.41  .37948 1.3306 148.6 22.4  45d 148
2021 03 05 02  09 08 27.947   +21 01 52.70  .37967 1.3307 148.6 22.4  45d 148
2021 03 05 03  09 08 21.396   +20 58 52.11  .37986 1.3307 148.6 22.4  45d 148
2021 03 05 04  09 08 14.862   +20 55 51.65  .38005 1.3308 148.5 22.4  45d 148
2021 03 05 05  09 08 08.345   +20 52 51.32  .38024 1.3309 148.5 22.4  45d 148
2021 03 05 06  09 08 01.843   +20 49 51.12  .38043 1.3309 148.4 22.4  45d 148
2021 03 05 07  09 07 55.358   +20 46 51.05  .38062 1.3310 148.4 22.4  45d 148
2021 03 05 08  09 07 48.890   +20 43 51.11  .38081 1.3311 148.3 22.4  45d 148
2021 03 05 09  09 07 42.438   +20 40 51.30  .38100 1.3311 148.3 22.4  45d 148
2021 03 05 10  09 07 36.002   +20 37 51.62  .38119 1.3312 148.3 22.4  45d 148
2021 03 05 11  09 07 29.582   +20 34 52.07  .38138 1.3313 148.2 22.4  45d 148
2021 03 05 12  09 07 23.179   +20 31 52.66  .38158 1.3314 148.2 22.4  45d 148
2021 03 05 13  09 07 16.792   +20 28 53.38  .38177 1.3314 148.1 22.4  45d 148
2021 03 05 14  09 07 10.421   +20 25 54.23  .38196 1.3315 148.1 22.4  45d 148
2021 03 05 15  09 07 04.066   +20 22 55.22  .38216 1.3316 148.0 22.4  45d 148
2021 03 05 16  09 06 57.728   +20 19 56.34  .38235 1.3316 148.0 22.4  46d 148
2021 03 05 17  09 06 51.406   +20 16 57.60  .38255 1.3317 147.9 22.4  46d 148
2021 03 05 18  09 06 45.100   +20 13 58.99  .38275 1.3318 147.9 22.4  46d 148
2021 03 05 19  09 06 38.810   +20 11 00.52  .38294 1.3319 147.8 22.4  46d 148
2021 03 05 20  09 06 32.536   +20 08 02.19  .38314 1.3319 147.8 22.5  46d 148
2021 03 05 21  09 06 26.278   +20 05 03.99  .38334 1.3320 147.8 22.5  46d 148
2021 03 05 22  09 06 20.036   +20 02 05.93  .38354 1.3321 147.7 22.5  46d 148
2021 03 05 23  09 06 13.811   +19 59 08.01  .38373 1.3321 147.7 22.5  46d 148
2021 03 06 00  09 06 07.601   +19 56 10.22  .38393 1.3322 147.6 22.5  46d 148
2021 03 06 01  09 06 01.408   +19 53 12.58  .38413 1.3323 147.6 22.5  46d 148
2021 03 06 02  09 05 55.230   +19 50 15.07  .38433 1.3324 147.5 22.5  46d 148
2021 03 06 03  09 05 49.069   +19 47 17.71  .38454 1.3324 147.5 22.5  46d 148
2021 03 06 04  09 05 42.923   +19 44 20.48  .38474 1.3325 147.4 22.5  46d 148
2021 03 06 05  09 05 36.794   +19 41 23.40  .38494 1.3326 147.4 22.5  46d 148
2021 03 06 06  09 05 30.680   +19 38 26.45  .38514 1.3327 147.3 22.5  46d 148
2021 03 06 07  09 05 24.583   +19 35 29.65  .38534 1.3327 147.3 22.5  46d 148
2021 03 06 08  09 05 18.501   +19 32 32.99  .38555 1.3328 147.3 22.5  46d 148
2021 03 06 09  09 05 12.435   +19 29 36.47  .38575 1.3329 147.2 22.5  46d 148
2021 03 06 10  09 05 06.385   +19 26 40.10  .38596 1.3329 147.2 22.5  46d 148
2021 03 06 11  09 05 00.351   +19 23 43.87  .38616 1.3330 147.1 22.5  46d 148
2021 03 06 12  09 04 54.332   +19 20 47.78  .38637 1.3331 147.1 22.5  46d 148
2021 03 06 13  09 04 48.330   +19 17 51.84  .38657 1.3332 147.0 22.5  46d 148
2021 03 06 14  09 04 42.343   +19 14 56.04  .38678 1.3332 147.0 22.5  46d 148